SCP
0 0 0 0 0 0 0 0 0 0 0 0 0 0 0 0 0 0 0 0 0 0 0 0 0 0 0 0 0 0 0 0 0 0 0 0 0 0 0 0 0 0 0
0 0 0 0 0 0 0 0 0 0 0 0 0 0 0 0 0 0 0 0 0 0 0 0 0 0 0 0 0 0 0 0 0 0 0 0 0 0 0 0 0 0 0
0 0 0 0 0 0 0 0 0 0 0 0 0 0 0 0 0 0 0 0 0 0 0 0 0 0 0 0 0 0 0 0 0 0 0 0 0 0 0 0 0 0 0
0 0 0 0 0 0 0 0 0 0 0 0 0 0 0 0 0 0 0 0 0 0 0 0 0 0 0 0 0 0 0 0 0 0 0 0 0 0 0 0 0 0 0
0 0 0 0 0 0 0 0 0 0 0 0 0 0 0 0 0 0 0 0 0 0 0 0 0 0 0 0 0 0 0 0 0 0 0 0 0 0 0 0 0 0 0
0 0 0 0 0 0 0 0 0 0 0 0 0 0 0 0 0 0 0 0 0 0 0 0 0 0 0 0 0 0 0 0 0 0 0 0 0 0 0 0 0 0 0
0 0 0 0 0 0 0 0 0 0 0 0 0 0 0 0 0 0 0 0 0 0 0 0 0 0 0 0 0 0 0 0 0 0 0 0 0 0 0 0 0 0 0
0 0 0 0 0 0 0 0 0 0 0 0 0 0 0 0 0 0 0 0 0 0 0 0 0 0 0 0 0 0 0 0 0 0 0 0 0 0 0 0 0 0 0
0 0 0 0 0 0 0 0 0 0 0 0 0 0 0 0 0 0 0 0 0 0 0 0 0 0 0 0 0 0 0 0 0 0 0 0 0 0 0 0 0 0 0
0 0 0 0 0 0 0 0 0 0 0 0 0 0 0 0 0 0 0 0 0 0 0 0 0 0 0 0 0 -0 0 0 0 0 0 0 0 0 0 0 0 0 0
0 0 0 0 0 0 0 0 0 0 0 0 0 0 0 0 0 0 0 0 0 0 0 0 -0 0 0 0 0 0 0 0 -0 -0 0 0 0 0 0 0 0 0 0
0 0 0 0 0 0 0 0 0 0 0 0 0 0 0 0 0 0 0 0 0 0 0 0 -0 0 0 0 0 0 0 0 0 -0 -0 0 0 0 0 0 0 0 0
0 0 0 0 0 0 0 0 0 0 0 0 0 0 0 0 0 0 0 0 0 0 0 0 0 -0 0 0 0 0 0 0 0 0 0 0 0 0 0 0 0 0 0
0 0 0 0 0 0 0 0 0 0 0 0 0 0 0 0 0 0 0 0 0 0 0 0 0 0 0 0 0 0 0 0 0 0 0 0 0 0 0 0 0 0 0
-0 0 0 0 0 0 0 0 0 0 0 0 0 0 0 0 0 0 0 0 0 0 0 0 0 0 0 0 0 0 0 0 0 0 0 0 0 0 0 0 0 0 0
0 0 0 0 0 0 0 0 0 0 0 0 0 0 0 0 0 0 0 0 0 0 0 0 0 0 0 0 0 0 0 0 0 0 0 0 0 0 0 0 0 0 0
0 0 0 0 0 0 0 0 0 0 0 0 0 0 0 0 0 -0 -0 -0 0 0 0 0 0 0 0 0 0 0 0 0 0 0 0 0 0 0 0 0 0 0 0
0 -0 0 0 0 0 0 0 0 0 0 0 0 0 0 0 0 0 0 0 0 0 0 0 0 0 0 0 0 0 0 0 0 0 0 0 0 0 0 0 0 0 -0
0 0 0 0 0 0 0 0 0 0 0 0 0 0 0 0 0 0 0 0 0 0 0 0 0 0 0 0 0 0 0 0 0 0 0 0 0 0 0 0 0 -0 0
0 0 0 0 0 0 0 0 0 0 0 0 0 0 0 0 0 0 0 0 0 0 0 0 0 0 0 0 0 0 0 0 0 0 0 0 0 0 0 -0 -0 0 0
0 0 0 0 0 0 0 0 0 0 0 0 0 0 0 0 0 0 0 0 0 0 0 -0 0 0 0 0 0 0 0 0 0 0 0 0 0 0 0 0 0 0 0
0 0 0 0 0 0 0 0 0 0 0 0 0 0 0 0 0 -0 0 0 0 0 0 -0 0 0 0 0 0 0 0 0 0 0 0 0 0 0 0 0 0 0 0
0 0 0 0 0 0 0 0 0 0 0 0 0 0 0 0 0 0 0 0 0 0 0 0 0 0 0 0 0 0 0 0 0 0 0 0 0 0 0 0 0 0 0
0 0 0 0 0 0 0 0 0 0 0 0 0 0 0 0 0 0 0 0 0 0 0 0 0 0 0 0 0 0 0 0 0 0 0 0 0 0 0 0 0 0 0
0 0 -0 0 0 0 0 0 0 0 0 0 0 0 0 0 0 0 0 0 0 0 0 0 0 0 0 -0 0 0 0 0 0 0 0 0 0 0 0 0 0 0 0
0 0 0 0 0 0 0 0 0 0 0 0 0 0 0 0 0 0 0 0 0 0 -0 0 0 0 0 -0 0 0 0 0 0 0 0 0 0 0 0 0 0 0 0
Wind_Speed_500mb
19 23 26 27 25 25 27 32 36 37 40 44 45 49 51 46 40 39 40 42 43 43 41 44 48 53 57 59 54 50 58 63 80 78 73 58 61 58 51 45 48 47 46
22 23 23 25 28 33 38 41 42 41 41 47 49 52 54 51 49 45 49 48 45 46 46 45 47 47 54 58 57 52 53 58 66 75 65 69 69 60 50 49 52 47 50
22 27 30 31 36 38 40 40 43 47 53 53 56 60 58 59 59 54 56 57 58 53 50 50 52 54 56 56 63 62 58 62 71 74 68 72 79 75 58 53 54 50 45
35 37 41 42 41 45 45 49 53 56 59 64 66 69 66 64 66 65 63 63 58 55 56 57 56 58 61 58 59 66 65 60 65 74 74 78 82 85 76 74 57 46 42
24 31 38 41 47 51 56 59 62 64 68 73 74 76 75 72 70 69 68 66 66 60 58 64 64 62 62 63 60 62 62 60 70 71 72 65 53 52 59 58 48 41 36
33 37 41 46 53 58 63 67 69 70 72 75 78 80 80 83 79 73 69 71 67 68 69 75 71 64 64 64 56 55 55 65 69 71 71 56 51 50 51 46 42 33 19
51 56 61 66 71 75 79 82 85 87 87 87 85 87 90 86 80 80 78 78 79 77 75 71 69 64 62 64 59 56 59 60 69 61 59 51 53 48 51 42 32 21 15
64 68 69 72 75 78 79 80 82 80 81 82 84 86 87 85 85 84 82 81 83 77 74 76 69 64 65 63 63 62 57 55 61 66 68 43 43 38 39 33 29 23 14
69 73 77 81 88 91 96 99 101 105 105 105 102 98 94 92 87 86 81 86 86 85 82 82 69 64 66 64 61 53 53 52 40 34 52 46 38 43 45 38 28 18 8
87 93 96 98 99 102 102 102 100 97 96 93 93 95 100 105 101 98 84 86 84 88 88 85 70 62 59 57 51 43 42 26 29 40 44 38 48 50 36 25 18 10 3
92 93 94 95 94 88 82 78 74 74 74 74 76 75 71 66 71 68 72 77 76 77 77 81 78 55 54 52 51 38 35 52 49 45 42 56 51 41 32 23 14 8 2
87 86 83 77 74 71 69 69 66 64 65 67 67 68 63 57 62 58 57 65 74 76 66 66 63 46 47 45 50 35 45 57 59 50 53 55 48 38 29 22 14 9 4
73 72 71 68 65 61 62 63 63 60 62 66 65 61 59 58 54 44 47 48 47 55 59 57 52 42 35 30 46 35 56 44 36 56 55 51 44 32 27 23 17 15 10
67 68 65 63 62 59 59 59 59 59 58 57 64 65 53 36 44 45 40 40 43 48 51 55 52 38 24 24 37 45 59 50 38 30 38 38 32 26 27 23 23 20 15
60 60 61 61 60 63 61 58 55 54 53 56 60 58 60 58 58 46 43 37 33 39 40 44 53 45 37 34 31 44 72 46 35 27 25 23 29 33 29 29 27 22 19
59 58 56 58 60 58 58 59 53 51 45 43 47 56 70 70 59 39 30 34 36 33 36 37 47 42 46 38 34 28 54 44 30 29 28 28 32 36 32 30 29 26 21
51 50 53 52 53 54 53 53 59 54 51 45 38 37 45 55 66 66 63 48 38 37 42 42 49 50 44 39 28 34 44 49 47 34 31 32 34 32 30 31 30 26 22
41 43 44 46 49 50 49 50 51 54 56 55 47 41 33 38 48 60 54 52 54 50 44 47 48 49 46 43 40 38 41 47 56 41 31 34 31 27 26 25 24 23 22
40 39 38 41 42 43 44 44 45 48 50 53 50 43 35 25 34 43 61 62 58 51 40 41 53 49 46 48 44 44 44 47 48 49 39 38 34 32 32 31 27 24 23
37 34 35 38 37 38 37 41 42 44 46 46 46 39 32 21 26 38 50 51 57 54 47 43 44 45 47 45 42 39 41 46 50 52 50 43 39 37 34 30 27 26 22
35 35 32 28 27 28 31 33 32 35 37 38 43 29 17 17 19 27 37 57 57 57 56 59 51 49 50 46 40 35 36 42 45 50 48 44 42 39 32 29 28 22 20
34 32 29 29 27 27 30 31 31 32 35 34 35 33 22 10 11 16 25 37 53 52 62 63 61 58 56 50 43 38 34 35 39 42 41 38 36 34 35 34 24 24 22
36 34 32 32 29 25 28 31 33 32 31 31 30 30 28 17 8 9 12 20 37 54 59 61 62 63 60 59 56 45 35 31 33 36 36 37 37 36 35 29 26 24 20
40 41 42 40 40 34 30 32 34 36 36 30 26 26 25 22 15 4 7 7 12 23 37 62 69 62 61 66 62 49 37 28 32 39 32 25 33 36 35 30 23 17 12
45 47 49 50 50 45 36 34 36 39 40 39 31 27 20 17 15 13 9 6 4 13 22 36 49 59 62 73 68 53 40 25 31 43 38 29 37 34 29 22 21 29 31
54 55 56 58 58 54 50 45 42 39 39 36 32 32 28 22 15 8 5 2 2 7 14 21 28 50 55 67 76 64 42 27 29 37 41 42 35 26 25 29 35 42 39
Wind_Direction_500mb
244 250 257 262 267 270 273 276 273 273 282 290 297 301 303 302 303 307 310 304 299 297 295 291 287 291 287 278 279 274 268 260 252 261 269 271 255 248 237 246 234 243 250
254 255 256 261 266 271 275 280 275 283 289 295 296 299 299 298 298 298 309 310 307 299 295 294 289 297 299 288 278 275 270 264 261 259 265 266 254 253 243 235 235 247 254
249 262 265 268 273 279 282 276 276 281 283 288 287 291 292 293 295 293 301 304 303 298 295 293 296 292 293 296 294 286 273 268 260 260 261 259 257 243 247 254 244 248 239
259 259 256 258 269 272 273 274 277 281 279 285 286 284 283 284 287 289 293 298 292 286 287 288 293 295 287 289 293 290 279 267 262 258 254 262 258 256 250 234 232 233 240
271 270 270 273 270 274 276 279 280 282 282 283 282 279 278 279 281 280 285 289 288 285 289 289 289 289 289 280 285 285 278 264 260 256 250 247 235 235 222 216 214 227 242
288 288 285 283 281 281 281 281 280 278 277 278 279 278 275 277 277 275 279 281 280 281 293 290 281 283 284 279 285 283 269 262 253 249 241 229 226 231 210 204 206 205 209
294 292 290 290 289 288 288 287 286 284 282 277 271 268 270 272 270 271 275 276 280 280 290 290 277 276 279 277 285 291 273 268 244 247 233 235 241 229 221 200 195 183 156
295 294 294 294 294 292 291 289 287 286 285 283 279 274 269 263 265 268 271 271 270 272 277 288 278 275 274 275 287 282 288 261 234 242 235 221 202 212 217 202 178 176 181
298 300 300 299 297 295 293 292 289 287 284 280 277 275 274 272 269 265 263 264 261 268 274 279 277 273 273 273 280 288 284 255 261 242 176 176 201 202 184 177 179 179 174
305 302 300 298 297 296 295 293 292 291 289 287 284 281 279 275 270 262 256 253 258 266 272 278 276 268 272 266 275 285 269 210 187 153 187 203 183 177 173 173 178 174 97
300 300 298 297 298 298 298 297 297 294 291 286 279 278 276 275 272 271 257 251 254 261 271 272 271 262 263 260 264 270 246 165 173 189 200 185 178 175 171 172 174 173 100
303 302 301 302 303 303 302 302 298 294 289 285 282 283 285 279 267 261 255 254 256 267 265 262 255 261 259 252 246 249 191 184 175 195 200 190 187 186 180 182 195 210 262
303 303 306 307 307 307 302 299 297 296 290 287 283 285 281 282 279 268 263 258 250 256 259 255 248 258 254 246 232 216 177 196 191 207 197 194 195 192 189 196 213 230 253
307 308 310 311 312 311 309 307 304 299 291 283 279 281 275 283 265 261 262 267 252 254 252 248 241 247 226 252 221 207 211 207 204 194 196 191 200 208 210 209 223 234 243
307 310 313 314 316 315 311 306 301 297 290 280 273 276 278 275 266 266 267 263 258 255 255 242 239 231 230 240 263 208 219 216 200 187 204 208 209 219 222 224 226 231 240
309 312 314 316 317 317 316 315 312 309 305 293 279 269 263 257 257 235 222 237 252 246 254 238 226 223 217 224 251 226 217 213 209 212 216 224 212 220 227 230 227 229 238
311 315 317 320 322 323 321 316 315 321 317 311 304 289 270 263 250 249 249 244 237 241 245 238 226 218 214 217 234 247 216 227 224 231 225 217 215 218 226 220 222 224 237
317 319 320 322 327 327 326 322 321 320 320 321 320 313 290 265 251 242 236 233 238 234 238 233 221 218 211 213 226 234 235 211 221 227 209 195 199 207 211 212 219 223 227
330 332 329 325 326 328 329 328 327 327 325 325 326 320 314 279 250 241 231 232 234 235 233 223 217 212 212 220 225 230 227 213 217 217 209 216 215 221 227 230 231 231 225
344 340 336 332 330 329 331 333 336 336 334 335 333 327 315 281 245 233 221 215 220 221 219 201 204 200 201 206 217 223 219 214 214 215 215 221 228 236 236 227 223 211 225
351 351 346 344 343 346 346 347 347 349 351 354 354 342 312 281 262 245 232 223 217 215 219 219 210 202 198 199 206 208 210 215 215 219 222 223 225 222 209 205 203 216 230
3 1 359 356 355 356 1 2 1 2 7 5 10 4 358 325 271 246 233 224 218 214 219 223 224 218 206 211 212 210 210 206 208 208 205 205 210 212 209 205 220 227 226
19 18 18 13 12 4 16 16 16 13 13 16 16 18 10 4 329 254 239 232 224 220 212 219 225 222 214 212 220 216 212 200 204 205 204 207 208 200 202 215 211 221 241
32 32 31 28 24 21 21 22 22 21 16 16 20 25 29 23 23 11 185 194 207 206 216 225 225 223 208 210 218 215 210 203 210 201 195 205 211 199 194 190 212 232 260
40 40 36 34 29 28 30 29 27 26 25 27 33 32 27 27 44 62 96 132 200 209 212 218 221 223 213 208 215 208 206 207 211 206 201 200 194 188 192 208 237 257 272
47 44 42 40 38 38 36 34 28 27 30 33 39 40 37 35 28 14 10 14 198 208 216 217 218 214 211 203 206 208 201 201 188 185 186 187 193 202 226 247 258 277 262
Wind_Speed_850mb
19 23 26 27 25 25 27 32 36 37 40 44 45 49 51 46 40 39 40 42 43 43 41 44 48 53 57 59 54 50 58 63 80 78 73 58 61 58 51 45 48 47 46
22 23 23 25 28 33 38 41 42 41 41 47 49 52 54 51 49 45 49 48 45 46 46 45 47 47 54 58 57 52 53 58 66 75 65 69 69 60 50 49 52 47 50
22 27 30 31 36 38 40 40 43 47 53 53 56 60 58 59 59 54 56 57 58 53 50 50 52 54 56 56 63 62 58 62 71 74 68 72 79 75 58 53 54 50 45
35 37 41 42 41 45 45 49 53 56 59 64 66 69 66 64 66 65 63 63 58 55 56 57 56 58 61 58 59 66 65 60 65 74 74 78 82 85 76 74 57 46 42
24 31 38 41 47 51 56 59 62 64 68 73 74 76 75 72 70 69 68 66 66 60 58 64 64 62 62 63 60 62 62 60 70 71 72 65 53 52 59 58 48 41 36
33 37 41 46 53 58 63 67 69 70 72 75 78 80 80 83 79 73 69 71 67 68 69 75 71 64 64 64 56 55 55 65 69 71 71 56 51 50 51 46 42 33 19
51 56 61 66 71 75 79 82 85 87 87 87 85 87 90 86 80 80 78 78 79 77 75 71 69 64 62 64 59 56 59 60 69 61 59 51 53 48 51 42 32 21 15
64 68 69 72 75 78 79 80 82 80 81 82 84 86 87 85 85 84 82 81 83 77 74 76 69 64 65 63 63 62 57 55 61 66 68 43 43 38 39 33 29 23 14
69 73 77 81 88 91 96 99 101 105 105 105 102 98 94 92 87 86 81 86 86 85 82 82 69 64 66 64 61 53 53 52 40 34 52 46 38 43 45 38 28 18 8
87 93 96 98 99 102 102 102 100 97 96 93 93 95 100 105 101 98 84 86 84 88 88 85 70 62 59 57 51 43 42 26 29 40 44 38 48 50 36 25 18 10 3
92 93 94 95 94 88 82 78 74 74 74 74 76 75 71 66 71 68 72 77 76 77 77 81 78 55 54 52 51 38 35 52 49 45 42 56 51 41 32 23 14 8 2
87 86 83 77 74 71 69 69 66 64 65 67 67 68 63 57 62 58 57 65 74 76 66 66 63 46 47 45 50 35 45 57 59 50 53 55 48 38 29 22 14 9 4
73 72 71 68 65 61 62 63 63 60 62 66 65 61 59 58 54 44 47 48 47 55 59 57 52 42 35 30 46 35 56 44 36 56 55 51 44 32 27 23 17 15 10
67 68 65 63 62 59 59 59 59 59 58 57 64 65 53 36 44 45 40 40 43 48 51 55 52 38 24 24 37 45 59 50 38 30 38 38 32 26 27 23 23 20 15
60 60 61 61 60 63 61 58 55 54 53 56 60 58 60 58 58 46 43 37 33 39 40 44 53 45 37 34 31 44 72 46 35 27 25 23 29 33 29 29 27 22 19
59 58 56 58 60 58 58 59 53 51 45 43 47 56 70 70 59 39 30 34 36 33 36 37 47 42 46 38 34 28 54 44 30 29 28 28 32 36 32 30 29 26 21
51 50 53 52 53 54 53 53 59 54 51 45 38 37 45 55 66 66 63 48 38 37 42 42 49 50 44 39 28 34 44 49 47 34 31 32 34 32 30 31 30 26 22
41 43 44 46 49 50 49 50 51 54 56 55 47 41 33 38 48 60 54 52 54 50 44 47 48 49 46 43 40 38 41 47 56 41 31 34 31 27 26 25 24 23 22
40 39 38 41 42 43 44 44 45 48 50 53 50 43 35 25 34 43 61 62 58 51 40 41 53 49 46 48 44 44 44 47 48 49 39 38 34 32 32 31 27 24 23
37 34 35 38 37 38 37 41 42 44 46 46 46 39 32 21 26 38 50 51 57 54 47 43 44 45 47 45 42 39 41 46 50 52 50 43 39 37 34 30 27 26 22
35 35 32 28 27 28 31 33 32 35 37 38 43 29 17 17 19 27 37 57 57 57 56 59 51 49 50 46 40 35 36 42 45 50 48 44 42 39 32 29 28 22 20
34 32 29 29 27 27 30 31 31 32 35 34 35 33 22 10 11 16 25 37 53 52 62 63 61 58 56 50 43 38 34 35 39 42 41 38 36 34 35 34 24 24 22
36 34 32 32 29 25 28 31 33 32 31 31 30 30 28 17 8 9 12 20 37 54 59 61 62 63 60 59 56 45 35 31 33 36 36 37 37 36 35 29 26 24 20
40 41 42 40 40 34 30 32 34 36 36 30 26 26 25 22 15 4 7 7 12 23 37 62 69 62 61 66 62 49 37 28 32 39 32 25 33 36 35 30 23 17 12
45 47 49 50 50 45 36 34 36 39 40 39 31 27 20 17 15 13 9 6 4 13 22 36 49 59 62 73 68 53 40 25 31 43 38 29 37 34 29 22 21 29 31
54 55 56 58 58 54 50 45 42 39 39 36 32 32 28 22 15 8 5 2 2 7 14 21 28 50 55 67 76 64 42 27 29 37 41 42 35 26 25 29 35 42 39
Wind_Direction_850mb
244 250 257 262 267 270 273 276 273 273 282 290 297 301 303 302 303 307 310 304 299 297 295 291 287 291 287 278 279 274 268 260 252 261 269 271 255 248 237 246 234 243 250
254 255 256 261 266 271 275 280 275 283 289 295 296 299 299 298 298 298 309 310 307 299 295 294 289 297 299 288 278 275 270 264 261 259 265 266 254 253 243 235 235 247 254
249 262 265 268 273 279 282 276 276 281 283 288 287 291 292 293 295 293 301 304 303 298 295 293 296 292 293 296 294 286 273 268 260 260 261 259 257 243 247 254 244 248 239
259 259 256 258 269 272 273 274 277 281 279 285 286 284 283 284 287 289 293 298 292 286 287 288 293 295 287 289 293 290 279 267 262 258 254 262 258 256 250 234 232 233 240
271 270 270 273 270 274 276 279 280 282 282 283 282 279 278 279 281 280 285 289 288 285 289 289 289 289 289 280 285 285 278 264 260 256 250 247 235 235 222 216 214 227 242
288 288 285 283 281 281 281 281 280 278 277 278 279 278 275 277 277 275 279 281 280 281 293 290 281 283 284 279 285 283 269 262 253 249 241 229 226 231 210 204 206 205 209
294 292 290 290 289 288 288 287 286 284 282 277 271 268 270 272 270 271 275 276 280 280 290 290 277 276 279 277 285 291 273 268 244 247 233 235 241 229 221 200 195 183 156
295 294 294 294 294 292 291 289 287 286 285 283 279 274 269 263 265 268 271 271 270 272 277 288 278 275 274 275 287 282 288 261 234 242 235 221 202 212 217 202 178 176 181
298 300 300 299 297 295 293 292 289 287 284 280 277 275 274 272 269 265 263 264 261 268 274 279 277 273 273 273 280 288 284 255 261 242 176 176 201 202 184 177 179 179 174
305 302 300 298 297 296 295 293 292 291 289 287 284 281 279 275 270 262 256 253 258 266 272 278 276 268 272 266 275 285 269 210 187 153 187 203 183 177 173 173 178 174 97
300 300 298 297 298 298 298 297 297 294 291 286 279 278 276 275 272 271 257 251 254 261 271 272 271 262 263 260 264 270 246 165 173 189 200 185 178 175 171 172 174 173 100
303 302 301 302 303 303 302 302 298 294 289 285 282 283 285 279 267 261 255 254 256 267 265 262 255 261 259 252 246 249 191 184 175 195 200 190 187 186 180 182 195 210 262
303 303 306 307 307 307 302 299 297 296 290 287 283 285 281 282 279 268 263 258 250 256 259 255 248 258 254 246 232 216 177 196 191 207 197 194 195 192 189 196 213 230 253
307 308 310 311 312 311 309 307 304 299 291 283 279 281 275 283 265 261 262 267 252 254 252 248 241 247 226 252 221 207 211 207 204 194 196 191 200 208 210 209 223 234 243
307 310 313 314 316 315 311 306 301 297 290 280 273 276 278 275 266 266 267 263 258 255 255 242 239 231 230 240 263 208 219 216 200 187 204 208 209 219 222 224 226 231 240
309 312 314 316 317 317 316 315 312 309 305 293 279 269 263 257 257 235 222 237 252 246 254 238 226 223 217 224 251 226 217 213 209 212 216 224 212 220 227 230 227 229 238
311 315 317 320 322 323 321 316 315 321 317 311 304 289 270 263 250 249 249 244 237 241 245 238 226 218 214 217 234 247 216 227 224 231 225 217 215 218 226 220 222 224 237
317 319 320 322 327 327 326 322 321 320 320 321 320 313 290 265 251 242 236 233 238 234 238 233 221 218 211 213 226 234 235 211 221 227 209 195 199 207 211 212 219 223 227
330 332 329 325 326 328 329 328 327 327 325 325 326 320 314 279 250 241 231 232 234 235 233 223 217 212 212 220 225 230 227 213 217 217 209 216 215 221 227 230 231 231 225
344 340 336 332 330 329 331 333 336 336 334 335 333 327 315 281 245 233 221 215 220 221 219 201 204 200 201 206 217 223 219 214 214 215 215 221 228 236 236 227 223 211 225
351 351 346 344 343 346 346 347 347 349 351 354 354 342 312 281 262 245 232 223 217 215 219 219 210 202 198 199 206 208 210 215 215 219 222 223 225 222 209 205 203 216 230
3 1 359 356 355 356 1 2 1 2 7 5 10 4 358 325 271 246 233 224 218 214 219 223 224 218 206 211 212 210 210 206 208 208 205 205 210 212 209 205 220 227 226
19 18 18 13 12 4 16 16 16 13 13 16 16 18 10 4 329 254 239 232 224 220 212 219 225 222 214 212 220 216 212 200 204 205 204 207 208 200 202 215 211 221 241
32 32 31 28 24 21 21 22 22 21 16 16 20 25 29 23 23 11 185 194 207 206 216 225 225 223 208 210 218 215 210 203 210 201 195 205 211 199 194 190 212 232 260
40 40 36 34 29 28 30 29 27 26 25 27 33 32 27 27 44 62 96 132 200 209 212 218 221 223 213 208 215 208 206 207 211 206 201 200 194 188 192 208 237 257 272
47 44 42 40 38 38 36 34 28 27 30 33 39 40 37 35 28 14 10 14 198 208 216 217 218 214 211 203 206 208 201 201 188 185 186 187 193 202 226 247 258 277 262